Skip Page Navigation
NASA JPL Caltech
NASA Logo - Jet Propulsion Laboratory + View the NASA Portal
+ Center for Near-Earth Object Studies
JPL Home Earth Solar System Stars & Galaxies Technology
JPL Solar System Dynamics
BODIES ORBITS EPHEMERIDES TOOLS PHYSICAL DATA DISCOVERY FAQ SITE MAP
JPL Small-Body Database Browser
Search: [ help ]  
193341 (2000 UE7)
Classification: Main-belt Asteroid          SPK-ID: 2193341
Ephemeris | Orbit Diagram | Orbital Elements | Mission Design | Physical Parameters | Discovery Circumstances | Close-Approach Data ]

[ show orbit diagram ]
Orbital Elements at Epoch 2459000.5 (2020-May-31.0) TDB
Reference: JPL 19 (heliocentric ecliptic J2000)
 Element Value Uncertainty (1-sigma)   Units 
e .09980907250569625 4.1709e-08  
a 2.513785551975743 1.2677e-08 au
q 2.262886947554824 1.0757e-07 au
i 1.769436745882583 7.0488e-06 deg
node 20.05523487712901 0.00012286 deg
peri 71.29497705032192 0.00012851 deg
M 281.6440921668245 3.6759e-05 deg
tp 2459317.354596385147
(2021-Apr-12.85459639)
0.00014927 TDB
period 1455.763296642674
3.99
1.1012e-05
3.015e-08
d
yr
n .2472929499117357 1.8707e-09 deg/d
Q 2.764684156396661 1.3943e-08 au
  Orbit Determination Parameters
   # obs. used (total)      546  
   data-arc span      8218 days (22.50 yr)  
   first obs. used      1998-03-22  
   last obs. used      2020-09-20  
   planetary ephem.      DE431  
   SB-pert. ephem.      SB431-N16  
   condition code      0  
   norm. resid. RMS      .56745  
   source      ORB  
   producer      Otto Matic  
   solution date      2020-Oct-22 21:45:01  

Additional Information
 Earth MOID = 1.28024 au 
 Jupiter MOID = 2.37929 au 
 T_jup = 3.452 
[ show covariance matrix ]

Ephemeris | Orbit Diagram | Orbital Elements | Mission Design | Physical Parameters | Discovery Circumstances | Close-Approach Data ]

Physical Parameter Table
Parameter Symbol Value Units Sigma Reference Notes
absolute magnitude H 16.0   n/a MPO257857  

193341 (2000 UE7)          Discovered 2000-Oct-24 by LINEAR at Socorro
Reference: 20081113/Numbers.arcLast Updated: 2008-11-17

[ hide close-approach data ]
Close-Approach Data   ...sorted by Date/Time (TDB)
Date/Time (TDB) Time Uncertainty
(days_HH:MM)
Body Nominal Distance (au) Minimum Distance (au) Maximum Distance (au) V-relative (km/s) V-infinity (km/s) JD (TDB) Time Uncertainty (minutes) Semi-major axis (km) Semi-minor axis (km) range-LOV angle (deg) N-sigma BP Orbit Ref. Reference Modified
2099-Oct-27 06:39 00:14 Psych 0.0482549696850693 0.0482432395731908 0.0482666999087104 2.02444431517835 2.02444419132571 2488003.777237747 14.0434628271492 594.482967833623 68.4588306437023 11.3752384892224 23879.1518423525 T 19 CATAB v2.0f-lin.ifort 2020-Oct-22 21:45:28 2020-Oct-22 21:45
2130-Dec-05 02:38 00:01 Eunom 0.044893588607907 0.0448852702494302 0.0449019145815501 4.60226479009806 4.60226472215612 2499364.609672595 1.19966572736902 1021.38185514689 66.784609434829 66.3289800246445 92065.6393257937 T 19 CATAB v2.0f-lin.ifort 2020-Oct-22 21:45:28 2020-Oct-22 21:45
Ephemeris | Orbit Diagram | Orbital Elements | Mission Design | Physical Parameters | Discovery Circumstances | Close-Approach Data ]
ABOUT SSD CREDITS/AWARDS PRIVACY/COPYRIGHT GLOSSARY LINKS
FirstGov 2020-Oct-31 17:50 UT
(server date/time)  
NASA Home Page
Site Manager:   Ryan S. Park
Webmaster  Alan B. Chamberlin